| time (UTC) | temp F | wind direction | speed knots | gust knots | rain 1hr in | rain 24hr in | rain mn in | humidity % | barometer mb |
| 20260505013844 | 57 | 249 | 2.6 | 7.8 | 0.00 | 0.00 | 0.00 | 58 | 1008.2 |
| 20260505013343 | 57 | 279 | 2.6 | 9.6 | 0.00 | 0.00 | 0.00 | 57 | 1008.2 |
| 20260505012843 | 57 | 279 | 2.6 | 7.0 | 0.00 | 0.00 | 0.00 | 57 | 1008.1 |
| 20260505012335 | 57 | 282 | 1.7 | 7.0 | 0.00 | 0.00 | 0.00 | 56 | 1008.0 |
| 20260505012229 | 58 | 268 | 1.7 | 7.8 | 0.00 | 0.00 | 0.00 | 56 | 1007.9 |
| 20260505012009 | 58 | 319 | 1.7 | 7.0 | 0.00 | 0.00 | 0.00 | 56 | 1007.9 |
| 20260505011537 | 58 | 291 | 2.6 | 7.8 | 0.00 | 0.00 | 0.00 | 55 | 1007.8 |
| 20260505011400 | 58 | 268 | 1.7 | 7.8 | 0.00 | 0.00 | 0.00 | 56 | 1007.9 |
| 20260505010344 | 58 | 267 | 2.6 | 8.7 | 0.00 | 0.00 | 0.00 | 54 | 1007.8 |
| 20260505005833 | 59 | 275 | 2.6 | 8.7 | 0.00 | 0.00 | 0.00 | 54 | 1007.7 |
| 20260505005318 | 59 | 288 | 2.6 | 8.7 | 0.00 | 0.00 | 0.00 | 53 | 1007.6 |
| 20260505005309 | 59 | 271 | 2.6 | 9.6 | 0.00 | 0.00 | 0.00 | 52 | 1007.5 |
| 20260505004315 | 59 | 299 | 2.6 | 10.4 | 0.00 | 0.00 | 0.00 | 52 | 1007.4 |
| 20260505003829 | 60 | 316 | 2.6 | 10.4 | 0.00 | 0.00 | 0.00 | 52 | 1007.3 |
| 20260505003317 | 60 | 255 | 2.6 | 10.4 | 0.00 | 0.00 | 0.00 | 51 | 1007.2 |
| 20260505002827 | 60 | 298 | 3.5 | 10.4 | 0.00 | 0.00 | 0.00 | 51 | 1007.0 |
| 20260505002734 | 60 | 346 | 2.6 | 9.6 | 0.00 | 0.00 | 0.00 | 50 | 1006.9 |
| 20260505002040 | 60 | 311 | 2.6 | 9.6 | 0.00 | 0.00 | 0.00 | 50 | 1006.7 |
| 20260505001900 | 60 | 320 | 2.6 | 8.7 | 0.00 | 0.00 | 0.00 | 50 | 1006.8 |
| 20260505001040 | 61 | 307 | 2.6 | 9.6 | 0.00 | 0.00 | 0.00 | 49 | 1006.6 |
| 20260505000320 | 61 | 140 | 2.6 | 8.7 | 0.00 | 0.00 | 0.00 | 49 | 1006.5 |
| 20260504235817 | 61 | 294 | 2.6 | 8.7 | 0.00 | 0.00 | 0.00 | 49 | 1006.3 |
| 20260504235504 | 62 | 270 | 1.7 | 7.0 | 0.00 | 0.00 | 0.00 | 48 | 1006.3 |
| 20260504235313 | 61 | 260 | 2.6 | 8.7 | 0.00 | 0.00 | 0.00 | 49 | 1006.4 |
| 20260504234308 | 62 | 280 | 2.6 | 11.3 | 0.00 | 0.00 | 0.00 | 48 | 1006.2 |
| 20260504233807 | 62 | 101 | 3.5 | 11.3 | 0.00 | 0.00 | 0.00 | 47 | 1006.1 |
| 20260504233259 | 62 | 332 | 3.5 | 9.6 | 0.00 | 0.00 | 0.00 | 47 | 1006.1 |
| 20260504232804 | 63 | 261 | 2.6 | 11.3 | 0.00 | 0.00 | 0.00 | 46 | 1005.9 |
| 20260504232533 | 63 | 1 | 3.5 | 11.3 | 0.00 | 0.00 | 0.00 | 46 | 1005.8 |
| 20260504231808 | 63 | 221 | 3.5 | 13.0 | 0.00 | 0.00 | 0.00 | 46 | 1005.8 |
| 20260504231319 | 63 | 306 | 4.3 | 13.0 | 0.00 | 0.00 | 0.00 | 45 | 1005.8 |
| 20260504230810 | 64 | 327 | 5.2 | 13.0 | 0.00 | 0.00 | 0.00 | 45 | 1005.6 |
| 20260504230302 | 64 | 302 | 4.3 | 13.0 | 0.00 | 0.00 | 0.00 | 44 | 1005.5 |
| 20260504225806 | 64 | 333 | 3.5 | 11.3 | 0.00 | 0.00 | 0.00 | 44 | 1005.5 |
| 20260504225306 | 65 | 268 | 3.5 | 10.4 | 0.00 | 0.00 | 0.00 | 42 | 1005.5 |
| 20260504224746 | 65 | 294 | 3.5 | 10.4 | 0.00 | 0.00 | 0.00 | 43 | 1005.3 |
| 20260504224228 | 65 | 262 | 2.6 | 12.2 | 0.00 | 0.00 | 0.00 | 42 | 1005.3 |
| 20260504224002 | 65 | 276 | 2.6 | 12.2 | 0.00 | 0.00 | 0.00 | 42 | 1005.3 |
| 20260504223605 | 65 | 247 | 3.5 | 13.0 | 0.00 | 0.00 | 0.00 | 42 | 1005.2 |
| 20260504223539 | 65 | 353 | 4.3 | 13.0 | 0.00 | 0.00 | 0.00 | 40 | 1005.2 |
| 20260504223326 | 65 | 247 | 3.5 | 13.0 | 0.00 | 0.00 | 0.00 | 42 | 1005.2 |
| 20260504222224 | 66 | 259 | 4.3 | 13.0 | 0.00 | 0.00 | 0.00 | 39 | 1005.1 |
| 20260504221728 | 66 | 281 | 3.5 | 13.9 | 0.00 | 0.00 | 0.00 | 40 | 1005.1 |
| 20260504221228 | 67 | 192 | 2.6 | 13.9 | 0.00 | 0.00 | 0.00 | 40 | 1005.0 |
| 20260504220740 | 67 | 319 | 3.5 | 14.8 | 0.00 | 0.00 | 0.00 | 38 | 1005.0 |
| 20260504220348 | 68 | 42 | 3.5 | 11.3 | 0.00 | 0.00 | 0.00 | 36 | 1005.0 |
| 20260504220244 | 67 | 234 | 3.5 | 14.8 | 0.00 | 0.00 | 0.00 | 37 | 1005.0 |
| 20260504215219 | 68 | 200 | 3.5 | 11.3 | 0.00 | 0.00 | 0.00 | 37 | 1005.0 |
| 20260504214733 | 69 | 253 | 2.6 | 11.3 | 0.00 | 0.00 | 0.00 | 36 | 1005.0 |
| 20260504214220 | 69 | 283 | 1.7 | 6.1 | 0.00 | 0.00 | 0.00 | 34 | 1005.0 |
| 20260504213733 | 69 | 35 | 1.7 | 11.3 | 0.00 | 0.00 | 0.00 | 32 | 1004.9 |
| 20260504213215 | 69 | 222 | 2.6 | 11.3 | 0.00 | 0.00 | 0.00 | 33 | 1004.9 |
| 20260504213119 | 69 | 312 | 2.6 | 11.3 | 0.00 | 0.00 | 0.00 | 31 | 1004.9 |
| 20260504212803 | 69 | 2 | 2.6 | 11.3 | 0.00 | 0.00 | 0.00 | 33 | 1004.9 |
| 20260504211927 | 70 | 333 | 3.5 | 8.7 | 0.00 | 0.00 | 0.00 | 31 | 1004.9 |
| 20260504211720 | 69 | 33 | 2.6 | 9.6 | 0.00 | 0.00 | 0.00 | 32 | 1004.9 |
| 20260504211233 | 70 | 333 | 3.5 | 9.6 | 0.00 | 0.00 | 0.00 | 31 | 1004.9 |
| 20260504210453 | 70 | 73 | 3.5 | 8.7 | 0.00 | 0.00 | 0.00 | 31 | 1004.8 |
| 20260504210217 | 70 | 355 | 3.5 | 9.6 | 0.00 | 0.00 | 0.00 | 31 | 1004.8 |
| 20260504205150 | 70 | 52 | 2.6 | 8.7 | 0.00 | 0.00 | 0.00 | 32 | 1004.9 |
| 20260504204705 | 70 | 348 | 2.6 | 11.3 | 0.00 | 0.00 | 0.00 | 31 | 1004.7 |
| 20260504204427 | 70 | 36 | 3.5 | 11.3 | 0.00 | 0.00 | 0.00 | 32 | 1004.7 |
| 20260504203929 | 70 | 252 | 4.3 | 11.3 | 0.00 | 0.00 | 0.00 | 32 | 1004.8 |
| 20260504203743 | 70 | 177 | 4.3 | 11.3 | 0.00 | 0.00 | 0.00 | 31 | 1004.9 |
| 20260504202911 | 70 | 342 | 4.3 | 15.6 | 0.00 | 0.00 | 0.00 | 32 | 1004.9 |
| 20260504202709 | 70 | 57 | 3.5 | 15.6 | 0.00 | 0.00 | 0.00 | 31 | 1004.8 |
| 20260504201651 | 70 | 13 | 5.2 | 20.0 | 0.00 | 0.00 | 0.00 | 32 | 1004.9 |
| 20260504201228 | 70 | 26 | 4.3 | 20.0 | 0.00 | 0.00 | 0.00 | 31 | 1004.9 |
| 20260504200650 | 70 | 327 | 2.6 | 20.9 | 0.00 | 0.00 | 0.00 | 32 | 1005.0 |
| 20260504200221 | 70 | 285 | 3.5 | 20.9 | 0.00 | 0.00 | 0.00 | 33 | 1005.0 |
| 20260504195753 | 70 | 48 | 4.3 | 10.4 | 0.00 | 0.00 | 0.00 | 29 | 1005.1 |
| 20260504194722 | 70 | 121 | 4.3 | 10.4 | 0.00 | 0.00 | 0.00 | 31 | 1005.1 |
| 20260504194206 | 70 | 8 | 4.3 | 14.8 | 0.00 | 0.00 | 0.00 | 31 | 1005.2 |
| 20260504193700 | 69 | 25 | 3.5 | 14.8 | 0.00 | 0.00 | 0.00 | 31 | 1005.2 |
| 20260504193131 | 70 | 294 | 4.3 | 15.6 | 0.00 | 0.00 | 0.00 | 29 | 1005.0 |
| 20260504192643 | 69 | 18 | 4.3 | 15.6 | 0.00 | 0.00 | 0.00 | 29 | 1005.1 |
| 20260504192128 | 69 | 320 | 4.3 | 15.6 | 0.00 | 0.00 | 0.00 | 30 | 1005.0 |
| 20260504191643 | 69 | 307 | 5.2 | 15.6 | 0.00 | 0.00 | 0.00 | 30 | 1005.0 |
| 20260504191142 | 69 | 354 | 4.3 | 15.6 | 0.00 | 0.00 | 0.00 | 31 | 1005.1 |
| 20260504190653 | 69 | 1 | 4.3 | 12.2 | 0.00 | 0.00 | 0.00 | 30 | 1005.1 |
| 20260504190138 | 69 | 336 | 4.3 | 10.4 | 0.00 | 0.00 | 0.00 | 30 | 1005.2 |
| 20260504185840 | 70 | 5 | 3.5 | 10.4 | 0.00 | 0.00 | 0.00 | 30 | 1005.3 |
| 20260504185728 | 70 | 15 | 3.5 | 10.4 | 0.00 | 0.00 | 0.00 | 30 | 1005.4 |
| 20260504184745 | 70 | 275 | 4.3 | 19.1 | 0.00 | 0.00 | 0.00 | 31 | 1005.4 |
| 20260504184701 | 69 | 46 | 4.3 | 10.4 | 0.00 | 0.00 | 0.00 | 29 | 1005.4 |
| 20260504183907 | 69 | 352 | 3.5 | 19.1 | 0.00 | 0.00 | 0.00 | 30 | 1005.4 |
| 20260504183646 | 69 | 352 | 3.5 | 19.1 | 0.00 | 0.00 | 0.00 | 30 | 1005.4 |
| 20260504183118 | 69 | 6 | 5.2 | 19.1 | 0.00 | 0.00 | 0.00 | 29 | 1005.5 |
| 20260504182631 | 69 | 198 | 5.2 | 19.1 | 0.00 | 0.00 | 0.00 | 29 | 1005.2 |
| 20260504182421 | 69 | 15 | 4.3 | 13.9 | 0.00 | 0.00 | 0.00 | 30 | 1005.5 |
| 20260504182218 | 69 | 260 | 5.2 | 13.9 | 0.00 | 0.00 | 0.00 | 29 | 1005.4 |
| 20260504181115 | 70 | 205 | 3.5 | 12.2 | 0.00 | 0.00 | 0.00 | 30 | 1005.7 |
| 20260504180604 | 69 | 331 | 3.5 | 14.8 | 0.00 | 0.00 | 0.00 | 33 | 1005.6 |
| 20260504180123 | 69 | 27 | 4.3 | 14.8 | 0.00 | 0.00 | 0.00 | 30 | 1005.7 |
| 20260504175611 | 69 | 277 | 4.3 | 13.9 | 0.00 | 0.00 | 0.00 | 30 | 1005.6 |
| 20260504175112 | 69 | 3 | 4.3 | 16.5 | 0.00 | 0.00 | 0.00 | 29 | 1005.5 |
| 20260504174734 | 69 | 277 | 4.3 | 16.5 | 0.00 | 0.00 | 0.00 | 34 | 1005.8 |
| 20260504174618 | 69 | 11 | 3.5 | 16.5 | 0.00 | 0.00 | 0.00 | 30 | 1005.7 |
| 20260504173949 | 69 | 9 | 5.2 | 16.5 | 0.00 | 0.00 | 0.00 | 34 | 1005.9 |
| 20260504173943 | 68 | 306 | 5.2 | 14.8 | 0.00 | 0.00 | 0.00 | 31 | 1005.8 |
| 20260504173745 | 68 | 338 | 4.3 | 16.5 | 0.00 | 0.00 | 0.00 | 31 | 1005.8 |
| 20260504172321 | 69 | 12 | 4.3 | 10.4 | 0.00 | 0.00 | 0.00 | 31 | 1005.8 |
| 20260504172313 | 69 | 61 | 3.5 | 17.4 | 0.00 | 0.00 | 0.00 | 31 | 1005.9 |
| 20260504172157 | 69 | 298 | 5.2 | 13.0 | 0.00 | 0.00 | 0.00 | 29 | 1005.9 |
| 20260504170618 | 69 | 346 | 3.5 | 17.4 | 0.00 | 0.00 | 0.00 | 32 | 1005.8 |
| 20260504170119 | 69 | 289 | 4.3 | 17.4 | 0.00 | 0.00 | 0.00 | 32 | 1005.7 |
| 20260504160134 | 65 | 26 | 5.2 | 14.8 | 0.00 | 0.00 | 0.00 | 36 | 1006.9 |
| 20260504151035 | 64 | 163 | 6.1 | 9.6 | 0.00 | 0.00 | 0.00 | 38 | 1007.3 |
| 20260504150250 | 64 | 347 | 5.2 | 14.8 | 0.00 | 0.00 | 0.00 | 36 | 1007.2 |
| 20260504141211 | 62 | 1 | 2.6 | 8.7 | 0.00 | 0.00 | 0.00 | 42 | 1007.5 |
| 20260504140653 | 61 | 331 | 2.6 | 7.0 | 0.00 | 0.00 | 0.00 | 43 | 1007.6 |
| 20260504110417 | 47 | 279 | 1.7 | 6.1 | 0.00 | 0.00 | 0.00 | 56 | 1008.5 |
| 20260504081838 | 46 | 275 | 0.9 | 3.5 | 0.00 | 0.00 | 0.00 | 52 | 1008.1 |
| 20260504081336 | 46 | 353 | 0.9 | 3.5 | 0.00 | 0.00 | 0.00 | 54 | 1008.2 |
| 20260504080830 | 46 | 309 | 0.9 | 3.5 | 0.00 | 0.00 | 0.00 | 53 | 1008.2 |
| 20260504080325 | 46 | 275 | 0.9 | 3.5 | 0.00 | 0.00 | 0.00 | 55 | 1008.1 |
| 20260504070311 | 45 | 288 | 0.9 | 2.6 | 0.00 | 0.00 | 0.00 | 57 | 1008.0 |
| 20260504050745 | 45 | 327 | 0.9 | 3.5 | 0.00 | 0.00 | 0.00 | 54 | 1008.1 |
| 20260504050257 | 45 | 329 | 0.9 | 3.5 | 0.00 | 0.00 | 0.00 | 55 | 1008.1 |
| 20260504045749 | 45 | 281 | 0.9 | 3.5 | 0.00 | 0.00 | 0.00 | 54 | 1008.1 |
| 20260504045250 | 44 | 1 | 0.9 | 7.0 | 0.00 | 0.00 | 0.00 | 54 | 1008.1 |
| 20260504045103 | 44 | 0 | 1.7 | 7.0 | 0.00 | 0.00 | 0.00 | 55 | 1008.1 |
| 20260504045040 | 44 | 343 | 1.7 | 7.0 | 0.00 | 0.00 | 0.00 | 54 | 1008.1 |
| 20260504043754 | 44 | 242 | 0.9 | 7.0 | 0.00 | 0.00 | 0.00 | 55 | 1008.0 |
| 20260504043249 | 44 | 358 | 0.9 | 3.5 | 0.00 | 0.00 | 0.00 | 54 | 1008.2 |
| 20260504042739 | 43 | 6 | 0.9 | 3.5 | 0.00 | 0.00 | 0.00 | 54 | 1008.1 |
| 20260504042240 | 43 | 352 | 0.9 | 3.5 | 0.00 | 0.00 | 0.00 | 55 | 1008.0 |
| 20260504041741 | 43 | 326 | 0.9 | 3.5 | 0.00 | 0.00 | 0.00 | 55 | 1008.1 |
| 20260504041238 | 43 | 358 | 0.9 | 3.5 | 0.00 | 0.00 | 0.00 | 55 | 1008.0 |
| 20260504040739 | 43 | 0 | 0.9 | 2.6 | 0.00 | 0.00 | 0.00 | 55 | 1007.9 |
| 20260504040235 | 43 | 333 | 0.9 | 2.6 | 0.00 | 0.00 | 0.00 | 55 | 1007.9 |
| 20260504035743 | 43 | 294 | 0.9 | 3.5 | 0.00 | 0.00 | 0.00 | 54 | 1007.8 |
| 20260504035234 | 43 | 313 | 0.9 | 3.5 | 0.00 | 0.00 | 0.00 | 53 | 1007.8 |
| 20260504034736 | 44 | 322 | 0.9 | 3.5 | 0.00 | 0.00 | 0.00 | 53 | 1007.8 |
| 20260504034232 | 44 | 8 | 0.9 | 3.5 | 0.00 | 0.00 | 0.00 | 53 | 1007.8 |
| 20260504033730 | 44 | 3 | 0.9 | 3.5 | 0.00 | 0.00 | 0.00 | 53 | 1007.7 |
| 20260504033231 | 43 | 2 | 0.9 | 3.5 | 0.00 | 0.00 | 0.00 | 53 | 1007.7 |
| 20260504032738 | 43 | 344 | 0.9 | 4.3 | 0.00 | 0.00 | 0.00 | 54 | 1007.7 |
| 20260504032720 | 43 | 296 | 0.9 | 4.3 | 0.00 | 0.00 | 0.00 | 55 | 1007.7 |
| 20260504032710 | 43 | 281 | 0.9 | 4.3 | 0.00 | 0.00 | 0.00 | 55 | 1007.6 |
| 20260504031240 | 43 | 310 | 0.9 | 4.3 | 0.00 | 0.00 | 0.00 | 55 | 1007.6 |
| 20260504030737 | 43 | 265 | 0.9 | 2.6 | 0.00 | 0.00 | 0.00 | 56 | 1007.6 |
| 20260504030234 | 43 | 341 | 0.9 | 3.5 | 0.00 | 0.00 | 0.00 | 55 | 1007.5 |
| 20260504025730 | 42 | 348 | 0.9 | 3.5 | 0.00 | 0.00 | 0.00 | 55 | 1007.5 |
| 20260504025231 | 42 | 238 | 0.9 | 3.5 | 0.00 | 0.00 | 0.00 | 56 | 1007.5 |
| 20260504024726 | 42 | 237 | 0.0 | 3.5 | 0.00 | 0.00 | 0.00 | 56 | 1007.5 |
| 20260504024227 | 42 | 237 | 0.0 | 3.5 | 0.00 | 0.00 | 0.00 | 55 | 1007.5 |
| 20260504023723 | 42 | 235 | 0.0 | 3.5 | 0.00 | 0.00 | 0.00 | 55 | 1007.5 |
| 20260504023222 | 42 | 6 | 0.0 | 0.9 | 0.00 | 0.00 | 0.00 | 55 | 1007.5 |
| 20260504022722 | 42 | 6 | 0.0 | 0.9 | 0.00 | 0.00 | 0.00 | 55 | 1007.4 |
| 20260504022222 | 43 | 6 | 0.0 | 1.7 | 0.00 | 0.00 | 0.00 | 54 | 1007.5 |
| 20260504022040 | 43 | 6 | 0.0 | 1.7 | 0.00 | 0.00 | 0.00 | 54 | 1007.4 |
| 20260504021615 | 43 | 6 | 0.0 | 1.7 | 0.00 | 0.00 | 0.00 | 53 | 1007.4 |
| 20260504020717 | 43 | 6 | 0.0 | 1.7 | 0.00 | 0.00 | 0.00 | 53 | 1007.4 |
| 20260504020217 | 43 | 11 | 0.0 | 1.7 | 0.00 | 0.00 | 0.00 | 53 | 1007.4 |
| 20260504020032 | 43 | 12 | 0.0 | 1.7 | 0.00 | 0.00 | 0.00 | 53 | 1007.4 |
| 20260504015214 | 44 | 12 | 0.0 | 0.9 | 0.00 | 0.00 | 0.00 | 54 | 1007.4 |
| 20260504014710 | 44 | 12 | 0.0 | 0.9 | 0.00 | 0.00 | 0.00 | 52 | 1007.4 |